SCP
-0 0 0 0 0 0 0 0 0 0 0 0 0 0 0 0 0 0 0 0 0 0 0 0 0 0 0 0 0 0 0 0 0 0 0 0 0 0 0 0 0 0 0
0 0 0 0 0 0 0 0 0 0 0 0 0 0 0 0 0 0 0 0 0 0 0 0 0 0 0 0 0 0 0 0 0 0 0 0 0 0 0 0 0 0 0
0 0 0 0 0 0 0 0 0 0 0 0 0 0 0 0 0 0 0 0 0 0 0 0 0 0 0 0 0 0 -0 -0 -0 0 0 0 0 0 0 0 0 0 0
0 0 0 0 0 0 0 0 0 0 0 0 0 0 0 0 0 0 0 0 0 0 0 0 0 0 0 0 0 0 0 0 0 0 0 0 0 0 0 0 0 0 0
0 0 0 0 0 0 0 0 0 0 0 0 0 0 0 0 0 0 0 0 0 0 0 0 0 0 0 0 0 0 0 0 0 0 0 0 0 0 0 0 0 0 0
0 0 0 0 0 0 0 0 0 0 0 0 0 0 0 0 0 0 0 0 0 0 0 0 0 0 0 0 0 0 0 0 0 0 0 0 0 0 0 0 0 0 0
0 0 0 0 0 0 0 0 0 0 0 0 0 0 0 0 0 0 0 0 0 0 0 0 0 0 0 0 0 0 0 0 0 0 0 0 0 0 0 0 0 0 0
0 0 0 0 0 0 0 0 0 0 0 0 0 0 0 0 0 0 0 0 0 0 0 0 0 0 0 0 0 0 0 0 0 0 0 0 0 0 0 0 0 0 0
0 0 0 0 0 0 0 0 0 0 0 0 0 0 0 0 0 0 0 0 0 0 0 0 0 0 0 0 0 0 0 0 0 0 0 0 0 0 0 0 0 0 0
0 0 0 0 0 0 0 0 0 0 0 0 0 0 0 0 0 0 0 0 0 0 0 0 0 0 0 0 0 0 0 0 0 0 0 0 0 0 0 0 0 0 0
0 0 0 0 0 0 0 0 0 0 0 0 0 0 0 0 0 0 0 0 0 0 0 0 0 0 0 0 0 0 0 0 0 0 0 0 0 0 0 0 0 0 0
0 0 0 0 0 0 0 0 0 0 0 0 0 0 0 0 0 0 0 0 0 0 0 0 0 0 0 0 0 0 0 0 0 0 0 0 0 0 0 0 0 0 0
0 0 0 0 0 0 0 0 0 0 0 0 0 0 0 0 0 0 0 0 0 0 0 0 0 0 0 0 0 0 0 0 0 0 0 0 0 0 0 0 0 0 0
0 0 0 0 0 0 0 0 0 0 0 0 0 0 0 0 0 0 0 0 0 0 0 0 0 0 0 0 0 0 0 0 0 0 0 0 0 0 0 0 0 0 0
0 0 0 0 0 0 0 0 0 0 0 0 0 0 0 0 0 0 0 0 0 0 0 0 0 0 0 0 0 0 0 0 0 0 0 0 0 0 0 0 0 0 0
0 0 0 0 0 0 0 0 0 0 0 0 0 0 0 0 0 0 0 0 0 0 0 0 0 0 0 0 0 0 0 0 0 0 0 0 0 0 0 0 0 0 0
0 0 0 0 0 0 0 0 0 0 0 0 0 0 0 0 0 0 0 0 0 0 0 0 0 0 0 0 0 0 0 0 0 0 0 0 0 0 0 0 0 0 0
0 0 0 0 0 0 0 0 0 0 0 0 0 0 0 0 0 0 0 0 0 0 0 0 0 0 0 0 0 0 0 0 0 0 0 0 0 0 0 0 0 0 0
0 0 0 0 0 0 0 0 0 0 0 0 0 0 0 0 0 0 0 0 0 0 0 0 0 0 0 0 0 0 0 0 0 0 0 0 0 0 0 0 0 0 0
0 0 0 0 0 0 0 0 0 0 0 0 0 0 0 0 0 0 0 0 0 0 0 0 0 0 0 0 0 0 0 0 0 0 0 0 0 0 0 0 0 0 0
0 0 0 0 0 0 0 0 0 0 0 0 0 0 0 0 0 0 0 0 0 0 0 0 0 0 0 0 0 0 0 0 0 0 0 0 0 0 0 0 0 0 0
0 0 0 0 0 0 0 0 0 0 0 0 0 0 0 0 0 0 0 0 0 0 0 0 0 0 0 0 0 0 0 0 0 0 0 0 0 0 0 0 -0 -0 -0
0 0 0 0 0 0 0 0 0 0 0 0 0 0 0 0 0 0 0 0 0 0 0 0 0 0 0 0 0 0 0 0 0 0 0 0 0 0 0 0 -0 -0 -0
0 0 0 0 0 0 0 0 0 0 0 0 0 0 0 0 0 0 0 0 0 0 0 0 0 0 0 0 0 0 0 0 0 0 0 0 0 0 0 0 -0 -0 -0
0 0 0 0 0 0 0 0 0 0 0 0 0 0 0 0 0 0 0 0 0 0 0 0 0 0 0 0 0 0 0 0 0 0 0 0 0 0 0 0 -0 -0 -0
0 0 0 0 0 0 0 0 0 0 0 0 0 0 0 0 0 0 0 0 0 0 0 0 0 0 0 0 0 0 0 0 0 0 0 0 0 0 0 0 0 0 0
Wind_Speed_500mb
5 3 3 4 4 6 7 8 9 10 13 15 17 18 20 23 28 33 34 35 37 39 41 43 45 47 48 48 51 57 60 61 62 61 63 64 62 57 55 54 52 50 52
5 3 3 4 6 7 8 10 10 12 14 15 15 18 23 29 33 36 43 44 44 45 45 46 48 50 53 53 54 56 59 62 62 66 73 76 75 73 70 68 65 67 63
11 10 9 8 9 9 10 11 13 16 15 17 19 27 31 35 38 40 46 49 51 51 49 54 53 49 51 52 53 55 57 58 64 64 65 66 72 81 86 85 82 88 78
17 17 14 13 14 13 13 14 17 17 19 24 30 35 37 42 49 49 50 49 46 45 44 40 41 53 51 51 54 54 55 58 60 62 63 69 70 73 79 88 93 96 98
23 20 18 18 17 14 14 18 18 26 28 33 38 43 45 48 50 50 46 42 31 46 45 43 45 43 48 50 54 59 61 60 62 67 70 74 77 78 79 79 85 93 95
21 19 18 15 14 13 19 22 28 29 35 42 46 49 49 47 46 37 37 28 51 40 40 42 47 49 47 48 53 59 65 68 67 72 75 81 82 84 85 84 84 88 92
26 22 21 20 19 20 25 26 31 35 39 40 51 55 51 36 43 17 42 51 47 34 49 49 54 60 60 59 61 61 58 60 70 72 76 72 73 81 85 87 86 90 92
33 31 26 26 27 29 29 30 32 36 40 37 40 45 42 58 29 56 44 56 41 63 54 64 60 62 61 64 65 60 62 65 65 65 66 67 68 74 80 81 77 79 86
30 32 31 32 32 33 33 31 30 31 34 34 33 33 21 18 69 47 58 47 70 61 71 67 65 67 67 67 66 64 63 67 70 69 66 67 69 71 70 73 74 77 78
35 35 33 30 28 30 28 25 26 28 30 35 34 33 28 39 36 44 45 81 67 74 74 73 75 72 74 69 66 67 67 70 72 76 77 73 76 76 74 75 76 76 78
33 31 29 27 25 23 23 23 23 25 25 23 29 32 36 40 40 46 80 88 93 91 85 90 78 83 72 69 69 74 78 80 80 84 86 88 83 83 85 82 80 83 85
28 27 25 23 24 24 21 13 12 14 15 18 23 29 34 39 46 50 70 90 100 103 105 82 91 77 76 57 54 60 79 84 83 88 87 81 87 92 84 82 80 82 85
29 27 24 23 20 13 9 9 8 12 17 22 26 29 32 36 42 50 61 80 100 117 90 101 88 70 48 59 95 94 97 94 92 90 85 81 76 81 82 82 81 81 78
30 28 25 18 12 7 5 8 13 16 20 24 27 30 33 37 43 50 58 71 103 100 103 95 79 64 95 103 103 102 100 93 85 77 71 75 83 83 83 78 77 77 79
34 27 21 17 14 10 8 11 16 19 22 24 29 35 40 44 47 51 54 57 62 88 130 89 91 107 111 112 108 103 97 83 80 69 76 73 73 76 78 77 81 79 76
32 27 23 18 13 9 11 14 16 19 24 30 35 40 46 49 52 55 57 58 56 60 91 107 112 109 110 110 108 102 92 86 79 78 74 70 71 74 74 71 69 68 66
35 30 24 17 13 11 11 14 17 22 28 35 40 44 48 52 55 57 59 60 61 61 76 114 100 106 108 109 109 95 88 88 88 85 78 71 73 74 75 73 65 64 69
35 26 19 15 12 11 11 15 22 28 33 36 40 44 49 53 55 60 64 65 64 62 67 93 102 106 102 99 96 98 93 85 82 73 73 77 70 70 67 59 55 53 53
30 23 17 15 13 11 13 20 26 30 34 38 42 45 50 57 60 63 64 65 66 66 66 73 101 97 95 93 95 92 89 90 87 74 67 62 59 57 53 42 30 5 29
27 21 18 15 13 14 18 22 26 29 32 36 40 46 51 57 64 68 69 68 68 68 66 67 83 88 85 83 76 87 100 91 83 68 63 56 50 38 27 24 47 44 42
28 23 17 14 13 17 21 25 26 28 30 33 39 46 53 60 67 70 68 68 66 64 67 71 69 77 75 83 79 84 87 79 71 61 52 45 31 38 45 48 41 40 41
26 21 17 15 17 21 24 24 26 26 30 36 42 48 55 61 66 69 65 60 48 52 59 65 66 69 72 75 77 76 69 69 54 40 31 33 45 60 55 48 43 42 42
27 23 19 19 21 22 23 25 25 28 35 42 49 56 60 64 69 69 65 58 50 43 42 45 57 58 63 62 63 60 51 43 32 27 17 47 53 55 54 48 42 39 38
28 23 21 21 22 22 23 24 27 32 38 45 51 55 61 65 68 70 68 60 53 46 45 41 42 43 45 44 44 43 36 25 22 12 30 43 37 34 26 24 43 39 33
28 23 25 25 24 24 24 26 30 36 41 47 52 56 60 64 67 69 61 55 58 49 44 40 33 35 32 34 36 33 24 18 15 13 20 23 21 17 14 20 24 24 29
29 28 27 26 25 26 27 29 33 38 45 51 55 59 62 64 64 61 48 47 57 55 44 43 27 24 25 28 28 27 18 19 11 5 7 12 5 9 9 10 11 16 20
Wind_Direction_500mb
138 101 62 35 22 7 354 348 341 340 342 340 340 344 345 345 338 334 332 328 325 322 320 318 316 313 309 306 301 298 299 302 300 299 303 303 302 303 306 303 296 286 273
205 233 272 302 316 322 328 325 318 322 327 332 337 336 335 333 329 326 325 320 318 317 313 309 309 308 305 302 299 297 295 291 291 287 291 291 293 292 294 291 290 289 290
234 247 257 271 283 298 314 329 327 329 336 332 329 328 326 324 316 312 311 313 313 313 305 305 307 302 303 300 298 296 289 291 288 290 289 287 287 284 287 285 289 286 284
242 250 259 268 277 290 303 313 325 333 331 322 320 315 312 309 310 311 311 313 308 312 315 311 304 305 303 300 300 298 295 291 293 293 291 291 290 287 285 286 281 272 282
238 243 250 259 271 290 307 307 321 318 318 312 310 309 310 309 313 310 315 310 315 321 311 307 306 306 304 299 298 295 295 293 289 290 291 289 288 288 286 284 282 285 283
248 251 250 263 285 301 297 297 298 308 310 310 308 311 306 311 316 306 315 314 316 323 315 321 314 317 316 308 298 298 291 289 289 288 288 286 286 288 288 288 285 282 278
251 262 274 278 281 279 285 294 301 305 301 312 311 312 318 320 325 317 316 319 321 326 324 326 327 326 325 321 319 312 307 296 292 293 287 291 287 286 286 289 291 288 284
254 261 268 272 276 280 284 289 296 297 309 315 320 318 326 330 320 319 327 327 331 327 328 329 329 328 328 324 322 319 316 313 312 309 304 300 301 295 291 293 294 293 287
252 262 266 267 271 275 279 285 292 298 302 309 314 328 327 310 314 321 326 326 325 326 327 326 328 329 328 326 323 321 319 315 311 308 305 302 303 299 298 296 294 294 293
250 256 260 264 263 266 273 279 287 289 297 301 302 306 301 305 316 319 318 320 324 324 325 327 327 327 326 325 324 322 321 318 312 310 307 304 303 298 299 297 295 292 290
244 242 244 249 256 262 269 274 277 277 290 305 311 320 320 322 327 316 319 321 323 326 326 328 329 330 329 328 327 325 320 317 312 309 306 303 297 292 293 295 293 293 291
235 236 241 249 254 258 259 271 286 299 314 320 323 325 332 333 327 323 317 322 320 324 325 330 331 332 333 329 321 314 310 311 306 304 302 296 290 292 296 296 294 294 292
231 232 239 244 252 249 260 281 301 319 320 322 323 327 330 328 326 324 321 320 319 320 324 326 331 329 334 317 317 320 319 316 312 308 304 299 295 292 292 295 293 293 295
223 226 228 227 224 225 246 292 305 315 321 325 329 330 330 327 326 323 323 325 323 318 320 327 324 325 320 322 322 322 321 319 316 312 306 300 295 296 295 296 296 294 292
218 219 202 193 193 211 256 289 304 314 320 328 330 327 325 324 323 323 321 320 322 319 316 319 318 321 323 324 325 325 324 324 319 317 314 315 310 309 304 301 295 292 293
207 192 186 190 208 241 276 296 310 319 325 328 328 324 323 323 323 322 321 321 319 312 305 315 320 321 323 324 327 328 327 325 324 324 321 318 313 310 306 301 298 295 295
184 185 191 203 229 260 288 303 314 323 327 325 325 324 322 323 325 325 326 325 323 317 307 315 319 323 325 328 329 329 328 327 329 326 321 317 312 307 304 301 300 303 298
183 187 204 220 243 264 287 310 320 324 326 323 321 324 327 330 331 331 329 327 324 322 316 314 322 326 328 331 330 333 335 335 333 331 323 317 313 311 311 310 307 307 311
189 197 213 231 248 274 303 312 319 321 321 325 330 333 334 335 333 331 328 326 326 323 320 316 319 326 327 332 332 332 334 335 338 339 339 335 335 333 332 330 329 94 87
195 203 216 234 259 286 306 314 314 321 328 331 334 337 335 332 330 329 328 328 328 325 324 318 318 320 326 330 330 332 335 337 341 348 344 341 341 354 28 41 85 97 97
199 204 214 239 270 295 302 307 316 323 328 334 336 334 331 328 327 329 328 327 324 325 324 321 318 320 324 330 332 334 333 340 350 344 349 354 36 67 81 86 81 72 64
198 206 220 244 270 287 298 306 315 324 330 331 332 329 327 327 328 329 326 323 326 324 326 320 322 324 332 333 328 337 344 345 346 4 10 69 83 87 70 68 65 58 55
203 211 229 251 271 286 296 304 313 322 326 330 329 329 329 330 331 329 326 327 326 329 326 326 323 327 324 328 337 345 352 354 5 360 90 95 96 88 83 65 58 55 57
209 219 237 255 269 280 291 301 309 318 324 326 327 330 332 331 330 328 325 325 328 335 332 330 325 329 333 339 343 345 352 355 354 37 114 99 99 95 87 74 69 50 47
216 230 243 255 266 280 290 297 305 316 322 327 331 334 332 331 328 326 324 324 328 328 329 332 328 332 336 342 343 350 357 8 8 83 113 110 103 87 63 59 48 48 54
226 236 246 254 267 279 284 296 307 317 324 329 332 332 333 332 330 325 324 323 317 322 325 325 326 332 338 344 351 1 9 21 4 317 278 194 175 334 318 4 30 31 26
Wind_Speed_850mb
5 3 3 4 4 6 7 8 9 10 13 15 17 18 20 23 28 33 34 35 37 39 41 43 45 47 48 48 51 57 60 61 62 61 63 64 62 57 55 54 52 50 52
5 3 3 4 6 7 8 10 10 12 14 15 15 18 23 29 33 36 43 44 44 45 45 46 48 50 53 53 54 56 59 62 62 66 73 76 75 73 70 68 65 67 63
11 10 9 8 9 9 10 11 13 16 15 17 19 27 31 35 38 40 46 49 51 51 49 54 53 49 51 52 53 55 57 58 64 64 65 66 72 81 86 85 82 88 78
17 17 14 13 14 13 13 14 17 17 19 24 30 35 37 42 49 49 50 49 46 45 44 40 41 53 51 51 54 54 55 58 60 62 63 69 70 73 79 88 93 96 98
23 20 18 18 17 14 14 18 18 26 28 33 38 43 45 48 50 50 46 42 31 46 45 43 45 43 48 50 54 59 61 60 62 67 70 74 77 78 79 79 85 93 95
21 19 18 15 14 13 19 22 28 29 35 42 46 49 49 47 46 37 37 28 51 40 40 42 47 49 47 48 53 59 65 68 67 72 75 81 82 84 85 84 84 88 92
26 22 21 20 19 20 25 26 31 35 39 40 51 55 51 36 43 17 42 51 47 34 49 49 54 60 60 59 61 61 58 60 70 72 76 72 73 81 85 87 86 90 92
33 31 26 26 27 29 29 30 32 36 40 37 40 45 42 58 29 56 44 56 41 63 54 64 60 62 61 64 65 60 62 65 65 65 66 67 68 74 80 81 77 79 86
30 32 31 32 32 33 33 31 30 31 34 34 33 33 21 18 69 47 58 47 70 61 71 67 65 67 67 67 66 64 63 67 70 69 66 67 69 71 70 73 74 77 78
35 35 33 30 28 30 28 25 26 28 30 35 34 33 28 39 36 44 45 81 67 74 74 73 75 72 74 69 66 67 67 70 72 76 77 73 76 76 74 75 76 76 78
33 31 29 27 25 23 23 23 23 25 25 23 29 32 36 40 40 46 80 88 93 91 85 90 78 83 72 69 69 74 78 80 80 84 86 88 83 83 85 82 80 83 85
28 27 25 23 24 24 21 13 12 14 15 18 23 29 34 39 46 50 70 90 100 103 105 82 91 77 76 57 54 60 79 84 83 88 87 81 87 92 84 82 80 82 85
29 27 24 23 20 13 9 9 8 12 17 22 26 29 32 36 42 50 61 80 100 117 90 101 88 70 48 59 95 94 97 94 92 90 85 81 76 81 82 82 81 81 78
30 28 25 18 12 7 5 8 13 16 20 24 27 30 33 37 43 50 58 71 103 100 103 95 79 64 95 103 103 102 100 93 85 77 71 75 83 83 83 78 77 77 79
34 27 21 17 14 10 8 11 16 19 22 24 29 35 40 44 47 51 54 57 62 88 130 89 91 107 111 112 108 103 97 83 80 69 76 73 73 76 78 77 81 79 76
32 27 23 18 13 9 11 14 16 19 24 30 35 40 46 49 52 55 57 58 56 60 91 107 112 109 110 110 108 102 92 86 79 78 74 70 71 74 74 71 69 68 66
35 30 24 17 13 11 11 14 17 22 28 35 40 44 48 52 55 57 59 60 61 61 76 114 100 106 108 109 109 95 88 88 88 85 78 71 73 74 75 73 65 64 69
35 26 19 15 12 11 11 15 22 28 33 36 40 44 49 53 55 60 64 65 64 62 67 93 102 106 102 99 96 98 93 85 82 73 73 77 70 70 67 59 55 53 53
30 23 17 15 13 11 13 20 26 30 34 38 42 45 50 57 60 63 64 65 66 66 66 73 101 97 95 93 95 92 89 90 87 74 67 62 59 57 53 42 30 5 29
27 21 18 15 13 14 18 22 26 29 32 36 40 46 51 57 64 68 69 68 68 68 66 67 83 88 85 83 76 87 100 91 83 68 63 56 50 38 27 24 47 44 42
28 23 17 14 13 17 21 25 26 28 30 33 39 46 53 60 67 70 68 68 66 64 67 71 69 77 75 83 79 84 87 79 71 61 52 45 31 38 45 48 41 40 41
26 21 17 15 17 21 24 24 26 26 30 36 42 48 55 61 66 69 65 60 48 52 59 65 66 69 72 75 77 76 69 69 54 40 31 33 45 60 55 48 43 42 42
27 23 19 19 21 22 23 25 25 28 35 42 49 56 60 64 69 69 65 58 50 43 42 45 57 58 63 62 63 60 51 43 32 27 17 47 53 55 54 48 42 39 38
28 23 21 21 22 22 23 24 27 32 38 45 51 55 61 65 68 70 68 60 53 46 45 41 42 43 45 44 44 43 36 25 22 12 30 43 37 34 26 24 43 39 33
28 23 25 25 24 24 24 26 30 36 41 47 52 56 60 64 67 69 61 55 58 49 44 40 33 35 32 34 36 33 24 18 15 13 20 23 21 17 14 20 24 24 29
29 28 27 26 25 26 27 29 33 38 45 51 55 59 62 64 64 61 48 47 57 55 44 43 27 24 25 28 28 27 18 19 11 5 7 12 5 9 9 10 11 16 20
Wind_Direction_850mb
138 101 62 35 22 7 354 348 341 340 342 340 340 344 345 345 338 334 332 328 325 322 320 318 316 313 309 306 301 298 299 302 300 299 303 303 302 303 306 303 296 286 273
205 233 272 302 316 322 328 325 318 322 327 332 337 336 335 333 329 326 325 320 318 317 313 309 309 308 305 302 299 297 295 291 291 287 291 291 293 292 294 291 290 289 290
234 247 257 271 283 298 314 329 327 329 336 332 329 328 326 324 316 312 311 313 313 313 305 305 307 302 303 300 298 296 289 291 288 290 289 287 287 284 287 285 289 286 284
242 250 259 268 277 290 303 313 325 333 331 322 320 315 312 309 310 311 311 313 308 312 315 311 304 305 303 300 300 298 295 291 293 293 291 291 290 287 285 286 281 272 282
238 243 250 259 271 290 307 307 321 318 318 312 310 309 310 309 313 310 315 310 315 321 311 307 306 306 304 299 298 295 295 293 289 290 291 289 288 288 286 284 282 285 283
248 251 250 263 285 301 297 297 298 308 310 310 308 311 306 311 316 306 315 314 316 323 315 321 314 317 316 308 298 298 291 289 289 288 288 286 286 288 288 288 285 282 278
251 262 274 278 281 279 285 294 301 305 301 312 311 312 318 320 325 317 316 319 321 326 324 326 327 326 325 321 319 312 307 296 292 293 287 291 287 286 286 289 291 288 284
254 261 268 272 276 280 284 289 296 297 309 315 320 318 326 330 320 319 327 327 331 327 328 329 329 328 328 324 322 319 316 313 312 309 304 300 301 295 291 293 294 293 287
252 262 266 267 271 275 279 285 292 298 302 309 314 328 327 310 314 321 326 326 325 326 327 326 328 329 328 326 323 321 319 315 311 308 305 302 303 299 298 296 294 294 293
250 256 260 264 263 266 273 279 287 289 297 301 302 306 301 305 316 319 318 320 324 324 325 327 327 327 326 325 324 322 321 318 312 310 307 304 303 298 299 297 295 292 290
244 242 244 249 256 262 269 274 277 277 290 305 311 320 320 322 327 316 319 321 323 326 326 328 329 330 329 328 327 325 320 317 312 309 306 303 297 292 293 295 293 293 291
235 236 241 249 254 258 259 271 286 299 314 320 323 325 332 333 327 323 317 322 320 324 325 330 331 332 333 329 321 314 310 311 306 304 302 296 290 292 296 296 294 294 292
231 232 239 244 252 249 260 281 301 319 320 322 323 327 330 328 326 324 321 320 319 320 324 326 331 329 334 317 317 320 319 316 312 308 304 299 295 292 292 295 293 293 295
223 226 228 227 224 225 246 292 305 315 321 325 329 330 330 327 326 323 323 325 323 318 320 327 324 325 320 322 322 322 321 319 316 312 306 300 295 296 295 296 296 294 292
218 219 202 193 193 211 256 289 304 314 320 328 330 327 325 324 323 323 321 320 322 319 316 319 318 321 323 324 325 325 324 324 319 317 314 315 310 309 304 301 295 292 293
207 192 186 190 208 241 276 296 310 319 325 328 328 324 323 323 323 322 321 321 319 312 305 315 320 321 323 324 327 328 327 325 324 324 321 318 313 310 306 301 298 295 295
184 185 191 203 229 260 288 303 314 323 327 325 325 324 322 323 325 325 326 325 323 317 307 315 319 323 325 328 329 329 328 327 329 326 321 317 312 307 304 301 300 303 298
183 187 204 220 243 264 287 310 320 324 326 323 321 324 327 330 331 331 329 327 324 322 316 314 322 326 328 331 330 333 335 335 333 331 323 317 313 311 311 310 307 307 311
189 197 213 231 248 274 303 312 319 321 321 325 330 333 334 335 333 331 328 326 326 323 320 316 319 326 327 332 332 332 334 335 338 339 339 335 335 333 332 330 329 94 87
195 203 216 234 259 286 306 314 314 321 328 331 334 337 335 332 330 329 328 328 328 325 324 318 318 320 326 330 330 332 335 337 341 348 344 341 341 354 28 41 85 97 97
199 204 214 239 270 295 302 307 316 323 328 334 336 334 331 328 327 329 328 327 324 325 324 321 318 320 324 330 332 334 333 340 350 344 349 354 36 67 81 86 81 72 64
198 206 220 244 270 287 298 306 315 324 330 331 332 329 327 327 328 329 326 323 326 324 326 320 322 324 332 333 328 337 344 345 346 4 10 69 83 87 70 68 65 58 55
203 211 229 251 271 286 296 304 313 322 326 330 329 329 329 330 331 329 326 327 326 329 326 326 323 327 324 328 337 345 352 354 5 360 90 95 96 88 83 65 58 55 57
209 219 237 255 269 280 291 301 309 318 324 326 327 330 332 331 330 328 325 325 328 335 332 330 325 329 333 339 343 345 352 355 354 37 114 99 99 95 87 74 69 50 47
216 230 243 255 266 280 290 297 305 316 322 327 331 334 332 331 328 326 324 324 328 328 329 332 328 332 336 342 343 350 357 8 8 83 113 110 103 87 63 59 48 48 54
226 236 246 254 267 279 284 296 307 317 324 329 332 332 333 332 330 325 324 323 317 322 325 325 326 332 338 344 351 1 9 21 4 317 278 194 175 334 318 4 30 31 26